Location: Houhaj�rvi
(61.2833°N, 23.0000°E)
Time: 19:11:32
(UTC+00:00)

SWAS - Pass Details

Date: 27 February 2020
Orbit: 582 x 589 km, 69.9° (Epoch: 07 April)

Event Time Altitude Azimuth Distance (km) Brightness Sun altitude
Rises 17:17:51 0° 314° (NW) 2,823 8.8 -11.8°
Reaches altitude 10° 17:20:05 10° 315° (NW) 1,919 7.9 -12.0°
Maximum altitude 17:24:24 88° 226° (SW) 593 4.4 -12.6°
Enters shadow 17:28:19 12° 138° (SE) 1,763 6.5 -13.0°
